Regional Weather Roundup
Issued by NWS

Home | Current Version | Previous Version | Text Only | Print | Product List | Glossary Off
Versions: 1 2 3 4 5 6 7 8 9 10 11 12 13 14 15 16 17 18 19 20 21 22 23 24 25 26 27 28 29 30 31 32 33 34 35 36 37 38 39 40 41 42 43 44 45 46 47 48 49 50

092
ASUS45 KSLC 281010
RWRUT

UTAH REGIONAL WEATHER ROUNDUP
NATIONAL WEATHER SERVICE SALT LAKE CITY UT
400 AM MDT SUN MAY 28 2017

UTZ001>011-023>025-281100-

NORTHERN UTAH

CITY           SKY/WX    TMP DP  RH WIND       PRES   REMARKS
BRIGHAM CITY   CLEAR     49  38  65 CALM      30.23S
HILL AFB       CLEAR     51  34  53 E16       30.23S
LOGAN          CLEAR     42  37  82 NE3       30.27R
OGDEN          CLEAR     48  36  63 S7        30.22F
SALT LAKE CITY CLEAR     54  41  62 SE5       30.21S
TOOELE VALLEY  CLEAR     43  36  75 S9        30.23S
WENDOVER       CLEAR     54  33  45 CALM      30.22S
HEBER CITY     CLEAR     36  30  80 E6        30.29R WCI  31
WEST JORDAN    CLEAR     44  40  84 CALM      30.24S

$$

UTZ011>015-024>027-281100-

CENTRAL/NORTHEAST UTAH

CITY           SKY/WX    TMP DP  RH WIND       PRES   REMARKS
PROVO AIRPORT  CLEAR     47  38  71 E5        30.24S
MOAB/CANYONLAN CLEAR     56  25  30 CALM      30.19R
DELTA          CLEAR     45  30  57 NE3       30.23S
PRICE          CLEAR     48  25  40 NE10      30.25S
ROOSEVELT      CLEAR     41  32  70 W6        30.29S
VERNAL         CLEAR     44  31  60 W6        30.27S

$$

UTZ013>016-019>022-027-281100-

SOUTHERN UTAH

CITY           SKY/WX    TMP DP  RH WIND       PRES   REMARKS
BRYCE CANYON   CLEAR     32  23  69 W7        30.33S WCI  26
CEDAR CITY     CLEAR     40  25  55 NW5       30.23S
MILFORD        CLEAR     41  23  48 CALM      30.22F
ST GEORGE      SUNNY     68  28  22 N6        30.07S
HANKSVILLE     CLEAR     55  25  30 N7        30.21S
BLANDING       CLEAR     53  24  32 N15       30.29F

$$

REGIONAL REPORTS     COLORADO/ARIZONA

CITY           SKY/WX    TMP DP  RH WIND       PRES   REMARKS
CRAIG, CO      CLEAR     32  29  88 CALM      30.34R
GRAND JUNCTION CLEAR     51  30  44 SE5       30.24S
RIFLE, CO      CLEAR     38  29  70 SE6       30.31S WCI  33
MONTROSE, CO   CLEAR     41  31  67 S9        30.31R
CORTEZ, CO     CLEAR     39  29  67 CALM      30.24R
COLORADO CITY    N/A     46  28  49 CALM      30.19S
PAGE, AZ       CLEAR     63  25  23 CALM      30.11S
GRAND CANYON   CLEAR     36  25  64 E3        30.24S
KINGMAN, AZ    CLEAR     61  22  22 MISG      30.04F
FLAGSTAFF, AZ  CLEAR     37  24  59 CALM      30.23F

$$

REGIONAL REPORTS    NEVADA/IDAHO/WYOMING

CITY           SKY/WX    TMP DP  RH WIND       PRES   REMARKS
LAS VEGAS, NV  CLEAR     79  21  11 CALM      29.98S
ELY, NY        CLEAR     34  21  59 S9        30.30R WCI  27
ELKO, NV       CLEAR     40  35  83 SW3       30.24S
POCATELLO, ID  CLEAR     42  40  92 CALM      30.27R
BURLEY, ID     CLEAR     44  40  85 S3        30.23S
FORT BRIDGER,    N/A     46  30  53 W5        30.37S
EVANSTON, WY   CLEAR     41  30  65 CALM      30.34S
ROCK SPRINGS,  CLEAR     41  28  60 SE3       30.33S
KEMMERER, WY     N/A     34  30  86 N12       30.36R WCI  25

$$




USA.gov is the U.S. government's official web portal to all federal, state and local government web resources and services.